TimePST,TemperatureF,Dew PointF,Humidity,Sea Level PressureIn,VisibilityMPH,Wind Direction,Wind SpeedMPH,Gust SpeedMPH,PrecipitationIn,Events,Conditions,WindDirDegrees,DateUTC
12:15 AM,42.8,42.8,100,30.40,3.0,Calm,Calm,-,0.00,,Mostly Cloudy,0,2014-01-01 08:15:00
12:35 AM,41.0,41.0,100,30.39,0.5,Calm,Calm,-,0.00,,Mostly Cloudy,0,2014-01-01 08:35:00
12:55 AM,42.8,42.8,100,30.40,2.0,North,3.5,-,0.00,,Overcast,350,2014-01-01 08:55:00
1:15 AM,42.8,42.8,100,30.41,1.8,Calm,Calm,-,0.00,,Mostly Cloudy,0,2014-01-01 09:15:00
1:35 AM,42.8,42.8,100,30.41,5.0,NE,5.8,-,0.00,,Partly Cloudy,40,2014-01-01 09:35:00
1:55 AM,42.8,42.8,100,30.41,10.0,NE,4.6,-,0.00,,Clear,40,2014-01-01 09:55:00
2:15 AM,42.8,42.8,100,30.42,8.0,NE,4.6,-,0.00,,Scattered Clouds,50,2014-01-01 10:15:00
2:35 AM,41.0,41.0,100,30.43,6.0,Calm,Calm,-,0.00,,Mostly Cloudy,0,2014-01-01 10:35:00
2:55 AM,37.4,37.4,100,30.43,0.5,East,3.5,-,0.00,,Overcast,100,2014-01-01 10:55:00
4:35 AM,37.4,37.4,100,30.42,2.5,NE,3.5,-,0.00,,Mostly Cloudy,50,2014-01-01 12:35:00
4:55 AM,39.2,39.2,100,30.42,10.0,NE,5.8,-,0.00,,Scattered Clouds,40,2014-01-01 12:55:00
5:15 AM,37.4,37.4,100,30.42,3.0,Calm,Calm,-,0.00,,Scattered Clouds,0,2014-01-01 13:15:00
5:35 AM,33.8,33.8,100,30.40,0.5,East,4.6,-,0.00,,Mostly Cloudy,80,2014-01-01 13:35:00
7:35 AM,39.2,39.2,100,30.40,10.0,NNE,4.6,-,0.00,,Clear,20,2014-01-01 15:35:00
7:55 AM,37.4,37.4,100,30.40,0.2,ENE,3.5,-,0.00,,Overcast,60,2014-01-01 15:55:00
8:15 AM,37.4,37.4,100,30.40,0.2,Calm,Calm,-,0.00,,Overcast,0,2014-01-01 16:15:00
8:35 AM,37.4,37.4,100,30.41,0.2,North,3.5,-,0.00,,Overcast,360,2014-01-01 16:35:00
8:55 AM,39.2,39.2,100,30.41,0.2,NNW,5.8,-,0.00,,Overcast,340,2014-01-01 16:55:00
9:15 AM,41.0,41.0,100,30.41,10.0,NNE,8.1,-,0.00,,Overcast,30,2014-01-01 17:15:00
9:35 AM,41.0,41.0,100,30.41,10.0,NNE,6.9,-,0.00,,Overcast,30,2014-01-01 17:35:00
9:55 AM,41.0,41.0,100,30.41,10.0,NE,8.1,-,0.00,,Overcast,50,2014-01-01 17:55:00
10:15 AM,42.8,42.8,100,30.42,10.0,NE,8.1,-,0.00,,Overcast,50,2014-01-01 18:15:00
10:35 AM,42.8,42.8,100,30.41,10.0,ENE,5.8,-,0.00,,Mostly Cloudy,60,2014-01-01 18:35:00
10:55 AM,42.8,42.8,100,30.40,9.0,NE,6.9,-,0.00,,Overcast,50,2014-01-01 18:55:00
11:15 AM,42.8,42.8,100,30.39,7.0,NE,5.8,-,0.00,,Mostly Cloudy,50,2014-01-01 19:15:00
11:35 AM,42.8,42.8,100,30.38,10.0,NNE,5.8,-,0.00,,Mostly Cloudy,20,2014-01-01 19:35:00
11:55 AM,44.6,44.6,100,30.38,10.0,Calm,Calm,-,0.00,,Overcast,0,2014-01-01 19:55:00
12:15 PM,44.6,44.6,100,30.38,10.0,North,3.5,-,0.00,,Overcast,360,2014-01-01 20:15:00
12:35 PM,44.6,44.6,100,30.38,10.0,NNE,4.6,-,0.00,,Overcast,20,2014-01-01 20:35:00
12:55 PM,44.6,44.6,100,30.37,10.0,NE,5.8,-,0.00,,Overcast,40,2014-01-01 20:55:00
1:15 PM,44.6,44.6,100,30.36,10.0,Calm,Calm,-,0.00,,Mostly Cloudy,0,2014-01-01 21:15:00
1:35 PM,44.6,44.6,100,30.36,9.0,North,3.5,-,0.00,,Partly Cloudy,360,2014-01-01 21:35:00
1:55 PM,44.6,44.6,100,30.36,7.0,NW,3.5,-,0.00,,Partly Cloudy,310,2014-01-01 21:55:00
2:15 PM,44.6,44.6,100,30.36,9.0,NNW,3.5,-,0.00,,Mostly Cloudy,340,2014-01-01 22:15:00
2:35 PM,44.6,44.6,100,30.36,5.0,NW,5.8,-,0.00,,Overcast,310,2014-01-01 22:35:00
2:55 PM,44.6,44.6,100,30.36,4.0,NNW,5.8,-,0.00,,Overcast,330,2014-01-01 22:55:00
3:15 PM,42.8,42.8,100,30.36,4.0,NW,4.6,-,0.00,,Mostly Cloudy,320,2014-01-01 23:15:00
3:35 PM,42.8,42.8,100,30.36,7.0,NW,4.6,-,0.00,,Partly Cloudy,310,2014-01-01 23:35:00
3:55 PM,42.8,42.8,100,30.36,10.0,NW,6.9,-,0.00,,Partly Cloudy,320,2014-01-01 23:55:00
4:15 PM,42.8,42.8,100,30.37,10.0,NW,5.8,-,0.00,,Mostly Cloudy,310,2014-01-02 00:15:00
4:35 PM,42.8,42.8,100,30.37,8.0,NW,4.6,-,0.00,,Overcast,310,2014-01-02 00:35:00
4:55 PM,42.8,42.8,100,30.37,9.0,NW,3.5,-,0.00,,Overcast,320,2014-01-02 00:55:00
5:15 PM,42.8,42.8,100,30.36,8.0,NNW,3.5,-,0.00,,Overcast,340,2014-01-02 01:15:00
5:35 PM,42.8,42.8,100,30.36,8.0,Calm,Calm,-,0.00,,Overcast,0,2014-01-02 01:35:00
6:35 PM,42.8,42.8,100,30.35,7.0,ENE,3.5,-,0.00,,Overcast,60,2014-01-02 02:35:00
6:55 PM,42.8,42.8,100,30.35,5.0,Calm,Calm,-,0.00,,Overcast,0,2014-01-02 02:55:00
7:35 PM,42.8,42.8,100,30.33,4.0,Calm,Calm,-,0.00,,Overcast,0,2014-01-02 03:35:00
7:55 PM,42.8,42.8,100,30.32,5.0,Calm,Calm,-,0.00,,Overcast,0,2014-01-02 03:55:00
8:15 PM,42.8,42.8,100,30.31,5.0,Calm,Calm,-,0.00,,Overcast,0,2014-01-02 04:15:00
8:55 PM,41.0,41.0,100,30.30,3.0,Calm,Calm,-,0.00,,Overcast,0,2014-01-02 04:55:00
10:35 PM,42.8,42.8,100,30.28,6.0,NW,4.6,-,0.00,,Overcast,310,2014-01-02 06:35:00
10:55 PM,42.8,42.8,100,30.29,10.0,NNW,8.1,-,0.00,,Overcast,340,2014-01-02 06:55:00
11:15 PM,42.8,42.8,100,30.28,10.0,NNW,4.6,-,0.00,,Overcast,340,2014-01-02 07:15:00
11:35 PM,42.8,42.8,100,30.27,10.0,NNE,5.8,-,0.00,,Overcast,20,2014-01-02 07:35:00
11:55 PM,42.8,42.8,100,30.26,10.0,Calm,Calm,-,0.00,,Overcast,0,2014-01-02 07:55:00